RLM Profile,,,,,,,,,,,,,,,,,,,,,,,,,
(In kWh),,,,,,,,,,,,,,,,,,,,,,,,,
,HR1,HR2,HR3,HR4,HR5,HR6,HR7,HR8,HR9,HR10,HR11,HR12,HR13,HR14,HR15,HR16,HR17,HR18,HR19,HR20,HR21,HR22,HR23,HR24,DSL
1/1/2020,1.545487,1.414985,1.378232,1.294455,1.316806,1.323041,1.381715,1.368325,1.341484,1.288376,1.349424,1.34604,1.421274,1.463513,1.508373,1.737874,1.939396,2.282506,2.3127,2.379665,2.356646,2.364458,2.073355,1.855904,0
1/2/2020,1.719982,1.600734,1.594186,1.425336,1.405485,1.541034,1.711087,1.658716,1.490468,1.230411,1.138522,1.144718,1.128163,1.152659,1.249411,1.390259,1.697237,2.116691,2.245599,2.268608,2.144457,2.071756,2.035256,1.716041,0
1/3/2020,1.472955,1.362173,1.246888,1.192236,1.192374,1.301039,1.615748,1.508219,1.39626,1.435807,1.397655,1.401381,1.400579,1.426882,1.42674,1.597578,1.791759,1.9326,2.181919,2.181006,2.007675,1.975027,1.861822,1.701944,0
1/4/2020,1.591913,1.503137,1.339239,1.292795,1.205466,1.17865,1.220573,1.2684,1.390459,1.417829,1.38481,1.38016,1.456463,1.418154,1.365284,1.637861,1.804359,2.071997,1.996038,1.957455,2.013029,1.93439,1.950227,1.749307,0
1/5/2020,1.500059,1.398507,1.283594,1.22703,1.20235,1.256303,1.290852,1.39638,1.50039,1.37487,1.203833,1.274532,1.271651,1.307445,1.377274,1.506577,1.893213,2.210341,2.19201,2.254453,2.304538,2.220675,2.108356,1.848125,0
1/6/2020,1.679009,1.461467,1.345471,1.319428,1.346774,1.488922,1.635979,1.71723,1.592848,1.332755,1.068295,1.019664,1.166501,1.309992,1.231091,1.302444,1.511565,1.948672,2.09169,2.11027,2.153373,2.056302,1.977434,1.738566,0
1/7/2020,1.523406,1.386786,1.314361,1.398793,1.427877,1.531649,1.740266,1.731211,1.43865,1.239726,1.105076,1.133081,1.186098,1.18776,1.343923,1.663215,1.751298,1.975825,2.123037,2.206426,2.428501,2.421167,2.231426,1.870849,0
1/8/2020,1.601606,1.479563,1.421212,1.486474,1.519174,1.559997,1.724708,1.687559,1.524257,1.272649,1.268577,1.202301,1.117956,1.241928,1.219198,1.386687,1.797496,2.156289,2.270909,2.33588,2.367466,2.192148,2.016114,1.705899,0
1/9/2020,1.901493,1.718571,1.613019,1.602844,1.519809,1.544266,1.77906,1.876721,1.481962,1.182554,1.192501,1.214671,1.115251,1.124653,1.216095,1.402869,1.793541,2.033436,2.255951,2.175216,2.114801,2.150677,2.034646,1.85271,0
1/10/2020,1.63469,1.600183,1.465867,1.474597,1.516495,1.5796,1.71933,1.626271,1.421093,1.245176,1.215656,1.123104,1.086425,1.029792,1.085493,1.251751,1.60684,1.820245,1.850897,1.879724,1.815041,1.80609,1.703155,1.510058,0
1/11/2020,1.356366,1.235561,1.13921,1.062893,1.067361,1.059754,1.122797,1.230496,1.273727,1.151135,1.229036,1.116671,1.041793,1.223832,1.249383,1.33135,1.422059,1.785398,1.849169,1.856493,1.750915,1.648176,1.573631,1.326828,0
1/12/2020,1.230624,1.052602,0.961991,0.982968,0.983713,0.965809,1.032264,1.107567,1.080341,1.038263,1.008288,0.949891,0.913791,0.88253,0.903104,1.093623,1.383331,1.751802,1.806242,1.819037,1.80848,1.736393,1.610199,1.423809,0
1/13/2020,1.217855,1.104508,1.04908,1.054598,1.061705,1.205862,1.387082,1.387397,1.240611,1.274204,1.165889,1.201995,1.214735,1.115536,1.21005,1.339027,1.554994,1.792928,1.963425,1.928705,1.924561,1.971326,1.859373,1.654051,0
1/14/2020,1.507974,1.417107,1.351822,1.355782,1.354358,1.484391,1.465804,1.555756,1.413147,1.2385,1.220528,1.230224,1.164983,1.26426,1.299204,1.418626,1.582339,1.77776,1.890375,2.022952,1.983717,2.023366,1.878871,1.52544,0
1/15/2020,1.49975,1.312485,1.267792,1.25473,1.305196,1.314638,1.431192,1.522411,1.204279,0.980537,0.946337,0.952312,0.884086,0.847946,0.953856,1.059435,1.289663,1.592858,1.818062,1.784545,1.796477,1.776997,1.710778,1.525965,0
1/16/2020,1.343617,1.282362,1.273655,1.246974,1.227648,1.259834,1.453007,1.344385,1.123041,1.010245,0.995165,0.924269,0.977709,0.953952,1.058555,1.307545,1.512209,1.799267,1.848578,1.889749,1.941519,1.910209,1.833994,1.638211,0
1/17/2020,1.583551,1.507603,1.424528,1.387825,1.424718,1.452448,1.722221,1.694173,1.504364,1.296755,1.271747,1.15158,1.070309,1.121445,1.16006,1.34703,1.718173,1.859326,2.026417,2.207081,2.039306,2.035998,1.93148,1.828098,0
1/18/2020,1.673606,1.504844,1.512691,1.499478,1.508906,1.585149,1.639639,1.709921,1.658863,1.526678,1.479538,1.590056,1.714709,1.731248,1.914695,1.922262,1.992104,2.200164,2.24211,2.081878,2.112199,2.030244,1.741953,1.652038,0
1/19/2020,1.505148,1.368128,1.345713,1.257016,1.278171,1.295865,1.340539,1.38712,1.51158,1.318001,1.231297,1.287183,1.268691,1.270616,1.345264,1.552756,1.812051,2.081112,2.006545,2.064,2.030841,2.012257,1.823713,1.613952,0
1/20/2020,1.544535,1.496369,1.470042,1.398868,1.37929,1.465305,1.592609,1.632084,1.567218,1.391518,1.373937,1.195279,1.198738,1.159363,1.119246,1.233081,1.673001,1.988255,2.073161,2.234485,2.314547,2.240036,2.087496,1.819607,0
1/21/2020,1.703119,1.554469,1.600865,1.52621,1.57102,1.662403,1.76146,1.861381,1.597538,1.274598,1.160432,1.057722,1.067212,1.07771,1.058562,1.214644,1.493714,1.863092,2.015756,2.138731,2.192579,2.330882,2.167256,1.867291,0
1/22/2020,1.663306,1.70495,1.694289,1.659964,1.606115,1.777037,1.871223,1.784256,1.606081,1.299159,1.192901,1.083779,1.008254,1.045886,1.126503,1.264522,1.534566,1.914717,2.030143,2.083023,2.040158,2.078916,1.999066,1.746844,0
1/23/2020,1.646958,1.49599,1.470408,1.552093,1.525859,1.575024,1.703987,1.763742,1.43411,1.146032,1.003997,0.91576,0.897656,0.97634,0.972696,1.140246,1.457041,1.831935,1.904798,1.973327,1.951876,1.889579,1.73204,1.538265,0
1/24/2020,1.539042,1.398429,1.338783,1.390108,1.425597,1.49123,1.630116,1.646624,1.365354,1.152033,0.882477,0.973199,0.853012,0.918966,0.933157,1.143968,1.372492,1.649257,1.750363,1.798806,1.756611,1.722954,1.645597,1.498897,0
1/25/2020,1.452227,1.310805,1.191853,1.198778,1.190292,1.249659,1.335343,1.52472,1.583921,1.595586,1.542139,1.549288,1.556277,1.501755,1.613473,1.511992,1.594232,1.850176,1.779499,1.83555,1.742097,1.715508,1.776862,1.603054,0
1/26/2020,1.514256,1.373737,1.249733,1.238976,1.24307,1.306577,1.343711,1.411024,1.488379,1.391079,1.06345,1.01006,1.099006,1.084479,1.193454,1.556566,1.647533,2.039664,2.133406,2.03577,2.016837,1.830252,1.695522,1.533309,0
1/27/2020,1.531689,1.512248,1.414521,1.386615,1.287011,1.396619,1.568024,1.494189,1.313686,1.160169,1.118867,1.22173,1.167775,1.140845,1.129309,1.266856,1.554758,1.848822,2.003567,1.962147,1.829565,1.926215,1.927957,1.580068,0
1/28/2020,1.549447,1.408043,1.296187,1.273234,1.289119,1.364579,1.595249,1.520177,1.415141,1.10474,1.0503,0.977127,0.978582,1.100097,1.18638,1.342842,1.612555,1.744269,1.905452,2.000806,1.991841,1.957089,1.7567,1.657535,0
1/29/2020,1.601872,1.454484,1.38908,1.351633,1.379527,1.458995,1.617275,1.553637,1.35769,1.164949,1.092958,0.971332,0.956847,0.954615,1.027591,1.120565,1.377015,1.651932,1.939646,2.055361,2.05018,2.065373,1.801,1.550341,0
1/30/2020,1.619599,1.513855,1.461054,1.533967,1.506705,1.512721,1.724338,1.603159,1.269043,1.093988,0.986418,0.928675,0.932269,0.962722,1.082624,1.217545,1.501964,1.889261,2.016114,1.935511,1.931601,1.979145,1.833458,1.640106,0
1/31/2020,1.540136,1.423209,1.464531,1.427644,1.489646,1.563415,1.607918,1.574036,1.368356,1.192098,1.118082,1.070914,1.000137,1.173114,1.285853,1.384929,1.666487,1.913695,1.885067,1.824379,2.021134,1.931215,1.853379,1.577484,0
2/1/2020,1.463361,1.33601,1.223916,1.208954,1.247008,1.266143,1.428793,1.448786,1.489433,1.356756,1.360786,1.395229,1.502834,1.495983,1.436393,1.587699,1.745513,1.899735,1.881527,1.886063,1.861828,1.715935,1.689528,1.661432,0
2/2/2020,1.620551,1.47959,1.327159,1.210235,1.228968,1.216843,1.338152,1.345019,1.377941,1.198207,1.124042,1.366613,1.260204,1.397231,1.540553,1.814648,2.250866,2.334029,2.209237,2.166413,2.134074,2.032021,1.848959,1.713457,0
2/3/2020,1.451416,1.413826,1.408164,1.330459,1.374826,1.527214,1.676305,1.566919,1.399142,1.227462,1.08722,1.066161,1.036506,0.921695,0.976304,1.075739,1.259538,1.576566,1.731985,1.696908,1.68265,1.835439,1.776376,1.443969,0
2/4/2020,1.374408,1.252011,1.194925,1.199246,1.115305,1.246509,1.409072,1.506427,1.363661,1.251187,1.12848,1.028902,1.0009,0.911197,0.952611,0.995103,1.245897,1.543471,1.819098,1.822006,1.738712,1.833101,1.719626,1.404435,0
2/5/2020,1.315769,1.225444,1.16967,1.192266,1.227955,1.305097,1.425719,1.423285,1.387921,1.238975,1.106753,1.114731,1.093549,1.178148,1.164752,1.328048,1.530804,1.751464,1.877942,1.938272,1.830819,1.821039,1.806974,1.510434,0
2/6/2020,1.314881,1.345281,1.307916,1.354259,1.32467,1.340976,1.557949,1.558779,1.432989,1.437204,1.362758,1.291204,1.351122,1.442806,1.452459,1.509157,1.544684,1.75882,1.798296,1.7861,1.713462,1.730978,1.71467,1.521071,0
2/7/2020,1.446128,1.371587,1.234328,1.275601,1.256054,1.294329,1.445664,1.437323,1.394377,1.252073,1.132245,1.071313,1.159136,1.203039,1.326752,1.341993,1.559479,1.826506,1.833029,2.000797,2.042944,1.989579,1.879524,1.646568,0
2/8/2020,1.547369,1.465645,1.376058,1.32596,1.376665,1.448823,1.535417,1.517906,1.318554,1.195571,1.110192,1.092101,1.123368,1.168465,1.260913,1.317541,1.514178,2.079047,2.081732,2.039099,1.970766,1.939451,1.701297,1.639744,0
2/9/2020,1.566718,1.478984,1.348256,1.318041,1.339828,1.398772,1.431808,1.374232,1.366005,1.143682,1.087081,1.061923,1.049044,1.01627,1.093563,1.199052,1.373097,1.801156,2.051742,2.042978,2.091896,2.020345,1.696545,1.455262,0
2/10/2020,1.303074,1.244315,1.151629,1.15078,1.187805,1.269055,1.464447,1.522581,1.390949,1.297923,1.234785,1.130865,1.174754,1.301311,1.339853,1.316589,1.431619,1.728179,1.850389,1.767981,1.765191,1.861951,1.687924,1.46832,0
2/11/2020,1.442264,1.312834,1.234912,1.239162,1.288307,1.35615,1.407802,1.410625,1.310975,1.201947,1.170086,1.166081,1.111258,1.132968,1.040557,0.995613,1.208937,1.527595,1.776308,1.823474,1.710345,1.711398,1.728411,1.463744,0
2/12/2020,1.296902,1.323747,1.29159,1.235237,1.270647,1.435427,1.532764,1.414319,1.188485,0.990364,0.934955,0.889288,0.94175,0.936574,1.045627,1.135688,1.277239,1.599004,1.800292,1.848875,1.837551,1.979838,1.932117,1.53599,0
2/13/2020,1.444587,1.373186,1.300687,1.268762,1.334704,1.398006,1.528847,1.600781,1.561927,1.297824,1.356061,1.327841,1.331003,1.290908,1.404729,1.392424,1.422992,1.527807,1.793874,1.785575,1.860337,1.916462,1.828351,1.646446,0
2/14/2020,1.525142,1.425487,1.375229,1.327529,1.39538,1.413151,1.545321,1.459193,1.306749,1.123141,1.059634,1.10057,1.043098,1.038971,1.128468,1.165772,1.444728,1.830569,2.018998,2.097353,2.049293,2.122519,2.095114,1.800596,0
2/15/2020,1.615257,1.550736,1.619631,1.614856,1.59943,1.619372,1.626818,1.651422,1.515143,1.42719,1.300507,1.188425,1.277077,1.231582,1.207701,1.349766,1.617252,1.995422,2.172218,2.23123,2.12702,2.050302,2.020495,1.787344,0
2/16/2020,1.645702,1.509812,1.414212,1.397667,1.366779,1.437332,1.550608,1.573859,1.508861,1.360929,1.139574,1.122691,1.117851,1.056154,1.190497,1.298181,1.388355,1.709208,1.8741,2.105537,2.009878,1.842129,1.724592,1.627977,0
2/17/2020,1.482628,1.425511,1.373795,1.342705,1.387838,1.528882,1.597749,1.552862,1.298348,1.153603,1.041471,0.977678,0.886624,0.829155,0.897171,0.977515,1.243304,1.495821,1.803168,1.902428,1.896503,1.829069,1.805983,1.442975,0
2/18/2020,1.452461,1.455639,1.375362,1.29025,1.355534,1.433949,1.580224,1.517443,1.316633,1.278356,1.125132,1.167845,1.149154,1.21861,1.137903,1.182844,1.35807,1.506673,1.74574,1.859895,1.909842,1.878575,1.888395,1.598118,0
2/19/2020,1.506014,1.369278,1.288035,1.280652,1.304849,1.370059,1.519961,1.466804,1.104472,0.958173,0.850117,0.982486,0.848196,0.843939,0.889552,0.969843,1.189274,1.618214,1.895743,2.00925,2.065192,2.057337,1.861081,1.686864,0
2/20/2020,1.680754,1.559721,1.519607,1.495063,1.521526,1.579725,1.820943,1.5851,1.252599,1.19329,1.183895,1.15226,1.161546,1.191657,1.206962,1.232945,1.38402,1.795722,1.914357,2.08491,2.139874,2.08886,1.991876,1.757946,0
2/21/2020,1.759429,1.635411,1.583491,1.578819,1.621347,1.681657,1.825315,1.782908,1.459224,1.211204,1.080847,1.052234,0.959961,0.940302,1.051462,1.117932,1.437317,1.812415,2.024624,2.063317,2.132487,2.008468,1.987343,1.80382,0
2/22/2020,1.681358,1.51613,1.57657,1.4663,1.45132,1.507581,1.652243,1.531487,1.317209,1.123038,1.120062,1.052777,0.99411,1.229169,1.169595,1.246462,1.473035,1.671906,1.987369,1.896847,1.968415,1.939067,1.777327,1.686248,0
2/23/2020,1.661684,1.493421,1.435635,1.41344,1.363822,1.43982,1.490794,1.511445,1.253281,1.171449,1.113501,0.988341,1.0102,1.061117,1.068081,1.273071,1.313135,1.602495,1.963921,1.87993,1.949973,2.067675,1.873602,1.68456,0
2/24/2020,1.49798,1.362436,1.311347,1.247733,1.277878,1.463595,1.660235,1.667983,1.204535,1.012066,0.879218,0.864781,0.841306,0.85333,0.888983,0.946848,1.14399,1.495018,1.725046,1.782905,1.808645,1.984381,1.694737,1.565727,0
2/25/2020,1.494228,1.327106,1.277617,1.21681,1.212773,1.290447,1.532161,1.442187,1.26223,1.081815,1.040266,1.064012,1.014092,0.969778,1.04326,1.259442,1.307618,1.557886,1.74502,1.831692,1.830137,1.923117,1.702931,1.415351,0
2/26/2020,1.416104,1.314846,1.235425,1.212677,1.223864,1.322633,1.415409,1.461433,1.278776,1.114155,1.094472,1.04079,1.057565,1.134131,1.192835,1.26226,1.360835,1.497459,1.814964,1.779446,1.998135,1.93827,1.774183,1.445334,0
2/27/2020,1.424598,1.346006,1.276436,1.251168,1.292305,1.367215,1.531132,1.531037,1.332833,1.122089,0.95794,0.93339,0.93977,1.001178,0.947887,1.025546,1.261335,1.577511,1.869352,1.917998,2.098194,2.081947,1.945765,1.893833,0
2/28/2020,1.75158,1.659017,1.5619,1.521401,1.588049,1.610339,1.736055,1.539364,1.258225,1.235885,1.120426,1.066235,1.117411,1.054435,1.035592,1.039087,1.313499,1.657482,1.811245,1.867883,1.830025,1.966738,1.84579,1.717896,0
2/29/2020,1.654842,1.51414,1.425337,1.398529,1.408461,1.464847,1.538313,1.582425,1.379226,1.1368,1.109276,1.116333,1.109406,1.201058,1.281506,1.46026,1.694077,2.216432,2.149215,2.047877,2.081183,2.068625,1.896742,1.703076,0
3/1/2020,1.745972,1.635239,1.539717,1.558356,1.513459,1.494625,1.561782,1.438756,1.343795,1.236046,1.07339,1.098266,1.114135,1.10576,1.074958,1.086135,1.344735,1.588681,1.80343,2.007507,2.148478,1.928922,1.915984,1.670301,0
3/2/2020,1.512592,1.373081,1.38306,1.340149,1.361164,1.447117,1.666709,1.532507,1.325767,1.118474,1.109561,1.016186,0.926823,0.908915,0.877331,0.846226,1.126619,1.415613,1.641383,1.768508,1.78097,1.704997,1.710449,1.600083,0
3/3/2020,1.498877,1.411249,1.175613,1.154775,1.111347,1.191703,1.354637,1.346543,1.046042,0.897376,0.965768,0.93686,0.867452,0.967869,1.149223,1.210428,1.355958,1.622712,1.606663,1.678135,1.742371,1.689476,1.610545,1.430671,0
3/4/2020,1.377678,1.240701,1.146471,1.166437,1.237065,1.272927,1.43797,1.273482,1.095562,0.873677,0.92188,0.983252,0.959061,0.911485,0.92543,0.944084,1.098092,1.453914,1.711438,1.656448,1.738985,1.817224,1.605815,1.445488,0
3/5/2020,1.379781,1.207077,1.211984,1.152638,1.149405,1.308356,1.557906,1.378,1.023861,0.899206,0.884678,0.863513,0.912912,0.861296,0.811429,0.844008,1.013188,1.282903,1.58228,1.662017,1.86386,1.875829,1.682114,1.549025,0
3/6/2020,1.383338,1.291171,1.213245,1.199723,1.235933,1.379714,1.605428,1.368746,1.197511,1.122655,1.200337,1.203853,1.225594,1.269727,1.439944,1.459699,1.601072,1.842279,1.969301,2.049546,2.050078,1.927198,1.732664,1.644134,0
3/7/2020,1.612689,1.38866,1.300738,1.306818,1.328826,1.411078,1.507685,1.452017,1.329982,1.064995,1.103317,1.102412,1.111526,1.18432,1.09321,1.062507,1.201983,1.596014,1.789239,1.755789,1.782148,1.954962,1.844931,1.715054,0
3/8/2020,1.697664,1.488988,0,1.681302,1.358201,1.320182,1.357284,1.45893,1.47536,1.443914,1.197737,1.06951,1.016658,0.995727,1.04886,1.004309,0.977365,0.975053,1.085451,1.444902,1.73028,1.864231,1.794663,1.766138,0
3/9/2020,1.567199,1.273571,1.21764,1.200508,1.194304,1.318243,1.588995,1.654268,1.257881,1.073491,0.937282,0.968547,0.847263,0.788962,0.806811,0.863656,0.813066,1.038351,1.348566,1.655095,1.583889,1.71246,1.600438,1.385543,0
3/10/2020,1.341598,1.160804,1.090607,1.074453,1.080213,1.14695,1.279193,1.399272,1.240388,1.043535,0.965978,0.790465,0.851361,0.856837,0.939631,0.963944,0.877895,1.10287,1.404839,1.618506,1.80091,1.735016,1.595704,1.431302,0
3/11/2020,1.322672,1.154362,1.054498,1.041541,1.052233,1.093974,1.300826,1.376487,1.142737,0.991742,0.958784,0.84829,0.850191,0.872308,0.878377,0.866679,0.95982,1.092014,1.387464,1.602695,1.628581,1.724946,1.584232,1.394951,0
3/12/2020,1.46767,1.316506,1.256863,1.268129,1.255305,1.296613,1.479025,1.593143,1.405471,1.171193,1.12531,1.039495,1.004451,1.05155,0.974152,1.092899,1.164266,1.405421,1.665411,1.844893,1.863262,1.778117,1.79528,1.540637,0
3/13/2020,1.536048,1.329868,1.268425,1.219644,1.107089,1.222905,1.334876,1.478873,1.505663,1.378076,1.285552,1.217407,1.175704,0.95706,0.905707,0.99955,1.064463,1.132488,1.452247,1.858327,1.751343,1.725386,1.649413,1.392753,0
3/14/2020,1.359146,1.135153,1.104014,1.06299,1.062527,1.088995,1.154393,1.200107,1.285068,1.099362,1.024422,1.028,1.000782,0.902002,0.878034,0.904658,0.964783,1.337185,1.568185,1.767113,1.79573,1.612757,1.488127,1.459953,0
3/15/2020,1.469704,1.310875,1.211062,1.154242,1.036195,1.088358,1.099503,1.254267,1.169846,1.122334,1.032477,1.050053,1.091536,1.057344,1.092128,1.054654,1.165757,1.241319,1.559431,1.834194,1.832603,1.84744,1.671856,1.522333,0
3/16/2020,1.352509,1.260091,1.202363,1.202858,1.162512,1.214968,1.448958,1.515106,1.403799,1.262244,1.126697,1.061456,1.057783,1.089348,1.117922,1.155601,1.188501,1.414392,1.68478,1.862484,2.026439,2.048214,1.80871,1.52786,0
3/17/2020,1.544194,1.331178,1.231415,1.207815,1.219402,1.253783,1.410628,1.461343,1.576245,1.48599,1.323722,1.291647,1.133011,1.09885,0.980833,1.003068,1.129365,1.274972,1.510482,1.719294,1.814248,1.844751,1.605491,1.362132,0
3/18/2020,1.287227,1.17907,1.112936,1.106876,1.141233,1.242388,1.38288,1.469179,1.217927,0.990632,0.94671,0.937426,0.914138,1.030122,0.997446,0.961627,1.065635,1.171576,1.492247,1.679372,1.746981,1.700023,1.603705,1.366078,0
3/19/2020,1.32428,1.12844,1.170729,1.126436,1.121133,1.246817,1.394976,1.421833,1.525983,1.457232,1.421715,1.304712,1.362923,1.249045,1.16155,1.098105,1.153087,1.425176,1.693897,1.805023,1.842046,1.815681,1.631203,1.383618,0
3/20/2020,1.30292,1.133755,1.133455,1.032851,1.047385,1.048909,1.242758,1.278941,1.196529,1.19004,1.174585,1.254178,1.18121,1.177429,1.064655,0.952532,1.023854,1.208766,1.533011,1.741456,1.787336,1.808312,1.648316,1.572368,0
3/21/2020,1.406303,1.202751,1.065427,0.982416,0.973155,1.000953,1.094588,1.069955,1.161608,1.133204,1.069871,1.022916,1.132403,1.144122,1.001309,0.965675,1.296605,1.317737,1.566441,1.913661,2.02488,1.863717,1.669752,1.487346,0
3/22/2020,1.40595,1.325007,1.23154,1.189286,1.170289,1.210339,1.343839,1.393442,1.310048,1.243284,1.149469,1.232476,1.152544,1.12891,1.106868,1.13474,1.205651,1.380225,1.682221,1.946907,2.017716,1.862806,1.788771,1.503119,0
3/23/2020,1.432363,1.363589,1.286482,1.227534,1.243146,1.276133,1.3726,1.42007,1.61245,1.596151,1.605049,1.620431,1.629412,1.654918,1.720381,1.809285,1.780767,1.989534,1.956702,1.973061,1.945688,1.878352,1.745997,1.532604,0
3/24/2020,1.455653,1.338689,1.278337,1.226031,1.276119,1.337281,1.441422,1.399598,1.340406,1.212791,1.002414,1.111761,1.097969,0.997913,1.034819,1.064541,1.065641,1.327304,1.633363,1.703472,1.82313,1.736571,1.594827,1.444745,0
3/25/2020,1.350863,1.239736,1.134595,1.127514,1.150409,1.175138,1.318707,1.404974,1.391041,1.338408,1.362541,1.347433,1.497291,1.273694,1.345202,1.469189,1.552877,1.647332,1.844208,2.016593,1.926182,1.910789,1.660748,1.466805,0
3/26/2020,1.355714,1.257549,1.16834,1.175851,1.206396,1.26494,1.39851,1.433428,1.213732,0.991647,0.97981,0.965156,0.968017,0.929358,0.914361,0.893906,0.948369,1.202831,1.491388,1.709067,1.774127,1.742563,1.560375,1.43284,0
3/27/2020,1.250976,1.150489,1.044895,0.967776,0.998297,0.988657,1.138019,1.197876,1.281654,0.958766,0.99551,0.952103,0.911647,0.959109,0.880283,0.956665,1.164229,1.308116,1.488201,1.623014,1.728032,1.687194,1.569924,1.438557,0
3/28/2020,1.2949,1.116788,1.016066,1.01291,0.98989,1.014948,1.104572,1.109394,1.337578,1.452057,1.293986,1.378521,1.364214,1.552103,1.684646,1.746328,1.797691,1.868777,1.83517,1.971018,2.002055,1.898965,1.58631,1.461553,0
3/29/2020,1.35399,1.238339,1.175419,1.113554,1.078754,1.104338,1.164108,1.253515,1.336104,1.471331,1.548753,1.388085,1.590526,1.564399,1.462848,1.591326,1.570487,1.737837,1.754318,1.934682,1.922497,1.838192,1.589297,1.396101,0
3/30/2020,1.244976,1.135636,1.074755,1.087143,1.04418,1.084243,1.163461,1.290273,1.190204,1.144086,1.190609,1.243313,1.197868,1.21035,1.250523,1.365561,1.477072,1.592462,1.731416,1.923647,1.93932,1.815855,1.631386,1.393366,0
3/31/2020,1.293912,1.196286,1.052084,1.04824,1.062951,1.106792,1.121256,1.252907,1.282791,1.326299,1.24405,1.318466,1.279144,1.317096,1.283836,1.385849,1.337072,1.556063,1.765103,1.914042,1.960772,1.846134,1.673956,1.484087,0
4/1/2020,1.351063,1.171893,1.188511,1.124852,1.101879,1.186545,1.259423,1.273703,1.165153,1.086237,1.070971,1.029274,1.075175,1.013149,1.097984,1.104375,1.183131,1.402415,1.602619,1.753035,1.846872,1.859393,1.745573,1.570092,0
4/2/2020,1.369827,1.208331,1.179414,1.1164,1.166548,1.187827,1.257224,1.316645,1.218519,1.033114,1.050707,1.034002,1.020038,0.996883,1.017003,1.063023,1.143717,1.198225,1.512114,1.762648,1.855867,1.790688,1.686025,1.50167,0
4/3/2020,1.300847,1.193404,1.092889,1.054258,1.048644,1.116252,1.190537,1.252825,1.276252,1.201002,1.149522,1.082876,1.041219,0.995975,1.048865,1.190828,1.31327,1.453496,1.73422,1.803847,1.758108,1.778555,1.665372,1.500621,0
4/4/2020,1.312979,1.192083,1.093732,1.07355,1.031049,1.076967,1.096913,1.097107,1.158119,1.136982,1.145661,1.082498,1.079863,1.118398,1.171479,1.110751,1.117757,1.169156,1.466736,1.784516,1.840411,1.653385,1.587283,1.43519,0
4/5/2020,1.342027,1.151681,1.055769,1.019636,0.999816,1.020467,1.058852,1.013784,1.093399,1.088848,1.095587,1.135682,1.153997,1.055932,1.1406,1.086723,1.239511,1.343981,1.407572,1.811577,1.787931,1.715894,1.447849,1.382701,0
4/6/2020,1.18714,1.085723,1.011058,0.974013,0.972392,1.026643,1.071958,1.170733,1.085221,1.022307,0.940127,0.986848,1.035531,0.974198,0.945432,0.923597,0.996139,1.120586,1.381475,1.673015,1.727962,1.72606,1.688522,1.452757,0
4/7/2020,1.194825,1.037147,1.020092,0.980762,1.025355,1.04252,1.12629,1.10265,1.014654,1.059521,0.979346,0.927448,0.964429,1.034264,1.098061,1.053085,1.191548,1.312934,1.326311,1.651559,1.790579,1.75791,1.771836,1.484899,0
4/8/2020,1.293791,1.201087,1.121144,1.042955,1.025538,1.090575,1.172346,1.239716,1.114078,1.151921,1.122811,1.161619,1.047135,1.126461,1.121833,1.155803,1.213647,1.525411,1.648656,1.735049,1.849004,1.687672,1.552481,1.398129,0
4/9/2020,1.298039,1.142689,1.125078,1.099394,1.090731,1.128318,1.179955,1.253259,1.374941,1.230228,1.178487,1.080337,1.221747,1.283617,1.368311,1.17873,1.208812,1.254597,1.518199,1.769957,1.850825,1.886644,1.742275,1.53575,0
4/10/2020,1.353948,1.238235,1.208699,1.189462,1.182759,1.177734,1.256292,1.240914,1.176844,1.177722,1.126484,1.128087,1.108828,1.22613,1.232129,1.251075,1.28173,1.391462,1.726481,1.887343,1.832522,1.816526,1.78051,1.558029,0
4/11/2020,1.436593,1.27985,1.195321,1.168267,1.180223,1.224551,1.220139,1.276625,1.125831,1.050762,1.050325,1.069493,1.258726,1.195335,1.105343,1.129657,1.136832,1.291685,1.503082,1.728242,1.875041,1.81092,1.681972,1.487086,0
4/12/2020,1.337506,1.222342,1.178716,1.133003,1.144969,1.139388,1.214219,1.16239,1.112132,1.103619,1.074074,1.120744,1.199012,1.135288,1.105153,1.188196,1.36957,1.306979,1.511556,1.598753,1.721563,1.627133,1.559808,1.374465,0
4/13/2020,1.24969,1.189763,1.023072,0.962545,0.990009,0.950705,0.981943,1.1783,1.341751,1.487908,1.530174,1.455307,1.525061,1.536053,1.495109,1.528528,1.501749,1.353617,1.504597,1.642448,1.780798,1.725521,1.636497,1.407396,0
4/14/2020,1.333951,1.121385,1.051187,1.004302,1.085987,1.036834,1.121407,1.157911,1.053052,1.00991,0.970827,1.025359,1.094019,1.055831,1.051531,1.00567,1.18518,1.418883,1.61869,1.717502,1.738816,1.690473,1.533927,1.381459,0